This is the latest recevied weather packets stored in our database for station/object EA3EH-1. If no packets are shown the sender has not sent any weather packets the latest 10 day(s).
| Time | Temp. | Humidity | Pressure | Rain* | Wind** | Luminosity | Snow |
|---|---|---|---|---|---|---|---|
| 1777684905 | 12.78° C | 59% | 1021 hPa | 0 mm | - | - | - |
| 1777683705 | 11.67° C | 66% | 1021 hPa | 0 mm | - | - | - |
| 1777683405 | 11.67° C | 65% | 1021 hPa | 0 mm | - | - | - |
| 1777682805 | 11.67° C | 62% | 1021 hPa | 0 mm | - | - | - |
| 1777682205 | 11.67° C | 65% | 1021 hPa | 0 mm | - | - | - |
| 1777681904 | 11.67° C | 66% | 1021 hPa | 0 mm | - | - | - |
| 1777680405 | 11.11° C | 62% | 1021 hPa | 0 mm | - | - | - |
| 1777678306 | 11.67° C | 61% | 1021 hPa | 0 mm | - | - | - |
| 1777678009 | 11.67° C | 60% | 1021 hPa | 0 mm | - | - | - |
| 1777677707 | 11.67° C | 60% | 1021 hPa | 0 mm | - | - | - |
| 1777677406 | 11.67° C | 58% | 1021 hPa | 0 mm | - | - | - |
| 1777676507 | 12.22° C | 60% | 1021 hPa | 0 mm | - | - | - |
| 1777675307 | 12.22° C | 59% | 1021 hPa | 0 mm | - | - | - |
| 1777674707 | 12.22° C | 58% | 1021 hPa | 0 mm | - | - | - |
| 1777674109 | 12.78° C | 57% | 1021 hPa | 0 mm | - | - | - |
| 1777673809 | 12.78° C | 58% | 1021 hPa | 0 mm | - | - | - |
| 1777672908 | 12.78° C | 53% | 1021 hPa | 0 mm | - | - | - |
| 1777672305 | 13.33° C | 51% | 1021 hPa | 0 mm | - | - | - |
| 1777671705 | 13.33° C | 49% | 1021 hPa | 0 mm | - | - | - |
| 1777671408 | 13.33° C | 49% | 1021 hPa | 0 mm | - | - | - |
| 1777671107 | 13.33° C | 48% | 1021 hPa | 0 mm | - | - | - |
| 1777670206 | 13.89° C | 46% | 1021 hPa | 0 mm | - | - | - |
| 1777669905 | 14.44° C | 46% | 1021 hPa | 0 mm | - | - | - |
| 1777669606 | 14.44° C | 46% | 1021 hPa | 0 mm | - | - | - |
| 1777667804 | 15° C | 43% | 1021 hPa | 0 mm | - | - | - |
* Rain latest hour (hover to see other rain measurements)
** Current wind speed in m/s (hover to see current wind gust speed)